#timestamp,LO_Frequency,Hit 
1500969615.9,286046996.8,N
1500969635.7,286046995.5,N
1500969655.5,286046991.8,N
1500969675.4,286046994.8,N
1500969695.2,286046994.8,N
1500969715.0,286046992.1,N
1500969715.9,286046992.1,N
1500969735.8,286046990.4,N
1500969755.6,286046991.9,N
1500969775.4,286046992.5,N
1500969795.3,286046993.1,N
1500969815.1,286046991.0,N
1500969816.0,286046991.0,N
1500969835.8,286046990.9,N
1500969855.7,286046986.9,N
1500969875.5,286046988.6,N
1500969895.3,286046989.0,N
1500969915.1,286046989.3,N
1500969935.9,286046988.4,N
1500969955.7,286046985.5,N
1500969975.5,286046987.8,N
1500969995.4,286046987.0,N
1500970015.2,286046988.0,N
1500970035.0,286046985.8,N
1500970035.9,286046985.8,N
1500970055.8,286046986.6,N
1500970075.6,286046986.1,N
1500970095.4,286046986.1,N
1500970115.3,286046988.3,N
1500970135.1,286046987.2,N
1500970136.0,286046987.2,N
1500970155.8,286046988.0,N
1500970175.6,286046987.4,N
1500970195.5,286046986.9,N
1500970215.3,286046987.8,N
1500970235.1,286046984.2,N
1500970255.9,286046986.8,N
1500970275.7,286046989.7,N
1500970295.5,286046989.5,N
1500970315.4,286046989.9,N
1500970335.2,286046987.4,N
1500970355.0,286046987.3,N
1500970355.9,286046987.3,N
1500970375.8,286046988.7,N
1500970395.6,286046985.9,N
1500970415.4,286046989.2,N
1500970435.2,286046989.5,N
1500970455.1,286046987.7,N
1500970456.0,286046987.7,N
1500970475.8,286046987.0,N
1500970495.6,286046987.7,N
1500970515.5,286046985.4,N
1500970535.3,286046991.6,N
1500970555.1,286046992.5,N
1500970575.9,286046990.6,N
1500970595.7,286046990.5,N
1500970615.5,286046987.6,N
1500970635.4,286046984.1,N
1500970655.2,286046986.1,N
1500970675.0,286046985.2,N
1500970675.9,286046985.2,N
1500970695.8,286046987.9,N
1500970715.6,286046987.4,N
1500970735.4,286046985.7,N
1500970755.2,286046984.4,N
1500970775.1,286046986.6,N
1500970776.0,286046986.6,N
1500970795.8,286046985.4,N
1500970815.6,286046988.0,N
1500970835.5,286046983.8,N
1500970855.3,286046985.1,N
1500970875.1,286046982.7,N
1500970895.9,286046984.7,N
1500970915.7,286046982.9,N
1500970935.5,286046984.1,N
1500970955.4,286046986.4,N
1500970975.2,286046984.5,N
1500970995.0,286046985.2,N
1500970995.9,286046985.2,N
1500971015.7,286046984.6,N
1500971035.6,286046983.3,N
1500971055.4,286046981.8,N
1500971075.2,286046981.7,N
1500971095.1,286046983.6,N
1500971096.0,286046983.6,N
1500971115.8,286046981.0,N
1500971135.6,286046982.4,N
1500971155.5,286046981.2,N
1500971175.3,286046980.8,N
1500971195.1,286046982.5,N
1500971215.9,286046982.2,N
1500971235.7,286046983.1,N
1500971255.5,286046983.6,N
1500971275.3,286046983.2,N
1500971295.2,286046981.6,N
1500971315.0,286046981.5,N
1500971315.9,286046981.5,N
1500971335.7,286046981.5,N
1500971355.6,286046982.3,N
1500971375.4,286046980.8,N
1500971395.2,286046984.7,N
1500971415.1,286046983.7,N
1500971416.0,286046983.7,N
1500971435.8,286046981.2,N
1500971455.6,286046985.1,N
1500971475.5,286046982.2,N
1500971495.3,286046982.8,N
1500971515.1,286046982.3,N
1500971535.9,286046984.0,N
1500971555.7,286046983.8,N
1500971575.5,286046986.3,N
1500971595.3,286046984.5,N
1500971615.2,286046988.2,N
1500971635.9,286046987.6,N
1500971655.7,286046986.1,N
1500971675.6,286046986.1,N
1500971695.4,286046984.3,N
1500971715.2,286046982.7,N
1500971735.1,286046982.3,N
1500971736.0,286046982.3,N
1500971755.8,286046984.0,N
1500971775.6,286046983.9,N
1500971795.4,286046984.8,N
1500971815.3,286046983.6,N
1500971835.1,286046983.4,N
1500971855.8,286046983.4,N
1500971875.7,286046980.9,N
1500971895.5,286046982.7,N
1500971915.3,286046980.7,N
1500971935.2,286046980.3,N
1500971955.9,286046980.1,N
1500971975.7,286046981.8,N
1500971995.6,286046980.7,N
1500972015.4,286046984.6,N
1500972035.2,286046982.6,N
1500972055.0,286046982.5,N
1500972056.0,286046982.5,N
1500972075.8,286046980.6,N
1500972095.6,286046983.5,N
1500972115.4,286046984.8,N
1500972135.3,286046982.5,N
1500972155.1,286046984.9,N
1500972175.8,286046982.8,N
1500972195.7,286046982.8,N
1500972215.5,286046986.6,N
1500972235.3,286046988.2,N
1500972255.2,286046989.3,N
1500972275.9,286046991.6,N
1500972295.7,286046986.1,N
1500972315.6,286046982.4,N
1500972335.4,286046980.7,Y
1500972355.2,286046994.1,N
1500972375.1,286046996.4,N
1500972376.0,286046996.4,N
1500972395.8,286046996.3,N
1500972415.6,286046994.5,N
1500972435.4,286046994.5,N
1500972455.3,286046992.5,N
1500972475.1,286046988.5,N
1500972495.8,286046990.8,N
1500972515.7,286046989.0,N
1500972535.5,286046987.7,N
1500972555.3,286046989.5,N
1500972575.2,286046989.1,N
1500972595.9,286046989.7,N
1500972615.7,286046987.1,N
1500972635.6,286046987.0,N
1500972655.4,286046987.1,N
1500972675.2,286046987.8,N
1500972695.0,286046989.9,N
1500972696.0,286046989.9,N
1500972715.8,286046993.2,N
1500972735.6,286046994.3,N
1500972755.4,286046995.4,N
1500972775.3,286046993.0,N
1500972795.1,286046992.8,N
1500972815.8,286046994.4,N
1500972835.7,286046990.7,N
1500972855.5,286046990.5,N
1500972875.3,286046995.2,N
1500972895.2,286046992.5,N
1500972915.9,286046993.2,N
1500972935.7,286046987.8,N
1500972955.6,286046985.1,Y
1500972975.4,286046993.9,N
1500972995.2,286046997.4,N
1500973015.0,286046997.7,N
1500973016.0,286046997.7,N
1500973035.8,286046997.5,N
1500973055.6,286046998.9,N
1500973075.4,286047002.8,N
1500973095.3,286047004.4,N
1500973115.1,286047004.4,N
1500973135.8,286047004.1,N
1500973155.7,286047002.0,N
1500973175.5,286047002.1,N
1500973195.3,286047001.5,N
